When you browse on this site, cookies collect data to enhance your experience and personalize the content and advertising you see.
Visit our Privacy Policy to learn more. By continuing to use the site, you agree to this use of cookies and data.
  • In Latvia
  • List of Countries
  • For 7 days
  • Water Temperature
  • Weather Map
  • Weather Widgets
  • user-avatar
    Login

    Hourly Weather Laksau

    Today, 14 December, Saturday

    Time Temperature Precipitation Wind Pressure Humidity
    00:00 +15°C° 0 mm 1 mps 706 mmHg 98%
    01:00 +15°C° 0 mm 1 mps 706 mmHg 98%
    02:00 +15°C° 0 mm 1 mps 706 mmHg 98%
    03:00 +15°C° 0 mm 1 mps 705 mmHg 98%
    04:00 +15°C° 0 mm 1 mps 705 mmHg 98%
    05:00 +15°C° 0 mm 1 mps 705 mmHg 98%
    06:00 +14°C° 0 mm 1 mps 706 mmHg 98%
    07:00 +15°C° 0 mm 1 mps 706 mmHg 99%
    08:00 +18°C° 0 mm 1 mps 707 mmHg 88%
    09:00 +21°C° 0 mm 1 mps 707 mmHg 78%
    10:00 +23°C° 0 mm 1 mps 708 mmHg 67%
    11:00 +24°C° 0 mm 1 mps 707 mmHg 62%
    12:00 +26°C° 0 mm 1 mps 707 mmHg 57%
    13:00 +27°C° 0 mm 1 mps 706 mmHg 53%
    14:00 +26°C° 0 mm 1 mps 706 mmHg 56%
    15:00 +26°C° 0 mm 2 mps 705 mmHg 59%
    16:00 +25°C° 0 mm 2 mps 705 mmHg 63%
    17:00 +23°C° 0 mm 1 mps 705 mmHg 74%
    18:00 +21°C° 0 mm 1 mps 705 mmHg 84%
    19:00 +18°C° 0 mm 1 mps 705 mmHg 95%
    20:00 +18°C° 0 mm 1 mps 705 mmHg 96%
    21:00 +18°C° 0 mm 1 mps 705 mmHg 97%
    22:00 +16°C° 0 mm 1 mps 705 mmHg 98%
    23:00 +16°C° 0 mm 1 mps 705 mmHg 98%

    Tomorrow, 15 December, Sunday

    Time Temperature Precipitation Wind Pressure Humidity
    00:00 +16°C° 0 mm 1 mps 705 mmHg 98%
    01:00 +16°C° 0 mm 1 mps 705 mmHg 98%
    02:00 +16°C° 0 mm 1 mps 704 mmHg 98%
    03:00 +16°C° 0 mm 1 mps 704 mmHg 98%
    04:00 +16°C° 0 mm 1 mps 704 mmHg 98%
    05:00 +16°C° 0 mm 1 mps 704 mmHg 97%
    06:00 +16°C° 0 mm 1 mps 704 mmHg 97%
    07:00 +18°C° 0 mm 1 mps 705 mmHg 96%
    08:00 +20°C° 0 mm 1 mps 705 mmHg 84%
    09:00 +23°C° 0 mm 1 mps 706 mmHg 72%
    10:00 +26°C° 0 mm 1 mps 707 mmHg 60%
    11:00 +27°C° 0 mm 1 mps 706 mmHg 56%
    12:00 +28°C° 0 mm 1 mps 706 mmHg 51%
    13:00 +29°C° 0 mm 1 mps 705 mmHg 46%
    14:00 +28°C° 0 mm 1 mps 705 mmHg 50%
    15:00 +28°C° 0 mm 1 mps 704 mmHg 55%
    16:00 +27°C° 0 mm 2 mps 704 mmHg 59%
    17:00 +24°C° 0 mm 2 mps 704 mmHg 71%
    18:00 +22°C° 0 mm 1 mps 703 mmHg 83%
    19:00 +20°C° 0 mm 1 mps 703 mmHg 95%
    20:00 +19°C° 0 mm 1 mps 704 mmHg 96%
    21:00 +19°C° 0 mm 1 mps 704 mmHg 97%
    22:00 +19°C° 0 mm 1 mps 705 mmHg 98%
    23:00 +18°C° 0 mm 1 mps 704 mmHg 98%

    Day after tomorrow, 16 December, Monday

    Time Temperature Precipitation Wind Pressure Humidity
    00:00 +18°C° 0 mm 1 mps 704 mmHg 98%
    01:00 +18°C° 0 mm 1 mps 703 mmHg 98%
    02:00 +18°C° 0 mm 1 mps 703 mmHg 98%
    03:00 +16°C° 0 mm 1 mps 703 mmHg 98%
    04:00 +16°C° 0 mm 1 mps 702 mmHg 98%
    05:00 +16°C° 0 mm 1 mps 703 mmHg 98%
    06:00 +16°C° 0 mm 1 mps 703 mmHg 98%
    07:00 +16°C° 0 mm 1 mps 704 mmHg 98%
    08:00 +20°C° 0 mm 1 mps 704 mmHg 86%
    09:00 +23°C° 0 mm 1 mps 705 mmHg 74%
    10:00 +25°C° 0 mm 1 mps 706 mmHg 62%
    11:00 +27°C° 0 mm 1 mps 705 mmHg 56%
    12:00 +28°C° 0 mm 1 mps 705 mmHg 51%
    13:00 +30°C° 0 mm 1 mps 704 mmHg 46%
    14:00 +29°C° 0 mm 1 mps 704 mmHg 49%
    15:00 +28°C° 0 mm 1 mps 703 mmHg 52%
    16:00 +28°C° 0 mm 1 mps 703 mmHg 56%
    17:00 +25°C° 0 mm 1 mps 703 mmHg 68%
    18:00 +23°C° 0 mm 1 mps 703 mmHg 81%
    19:00 +20°C° 0 mm 1 mps 703 mmHg 93%
    20:00 +20°C° 0 mm 1 mps 703 mmHg 95%
    21:00 +19°C° 0 mm 1 mps 703 mmHg 97%
    22:00 +19°C° 0 mm 1 mps 704 mmHg 98%
    23:00 +19°C° 0 mm 1 mps 704 mmHg 98%

    17 December, Tuesday

    Time Temperature Precipitation Wind Pressure Humidity
    00:00 +19°C° 0 mm 1 mps 703 mmHg 98%
    01:00 +19°C° 0 mm 1 mps 703 mmHg 97%
    02:00 +19°C° 0 mm 1 mps 703 mmHg 97%
    03:00 +19°C° 0 mm 1 mps 703 mmHg 97%
    04:00 +19°C° 0 mm 1 mps 703 mmHg 97%
    05:00 +19°C° 0 mm 1 mps 703 mmHg 97%
    06:00 +19°C° 0 mm 1 mps 703 mmHg 97%
    07:00 +19°C° 0 mm 1 mps 703 mmHg 98%
    08:00 +21°C° 0 mm 1 mps 704 mmHg 85%
    09:00 +24°C° 0 mm 1 mps 705 mmHg 73%
    10:00 +27°C° 0 mm 1 mps 706 mmHg 61%
    11:00 +28°C° 0 mm 1 mps 705 mmHg 57%
    12:00 +29°C° 0 mm 1 mps 704 mmHg 53%
    13:00 +30°C° 0 mm 1 mps 704 mmHg 49%
    14:00 +29°C° 0 mm 1 mps 703 mmHg 52%
    15:00 +29°C° 0 mm 1 mps 703 mmHg 56%
    16:00 +28°C° 0 mm 2 mps 702 mmHg 60%
    17:00 +26°C° 0 mm 1 mps 702 mmHg 71%
    18:00 +23°C° 0 mm 1 mps 702 mmHg 83%
    19:00 +21°C° 0 mm 1 mps 703 mmHg 94%
    20:00 +21°C° 0 mm 1 mps 703 mmHg 95%
    21:00 +21°C° 0 mm 1 mps 703 mmHg 96%
    22:00 +20°C° 0 mm 1 mps 704 mmHg 98%
    23:00 +20°C° 0 mm 1 mps 703 mmHg 97%

    18 December, Wednesday

    Time Temperature Precipitation Wind Pressure Humidity
    00:00 +20°C° 0 mm 1 mps 703 mmHg 97%
    01:00 +20°C° 0 mm 1 mps 703 mmHg 97%
    02:00 +20°C° 0 mm 1 mps 703 mmHg 97%
    03:00 +19°C° 0 mm 1 mps 703 mmHg 97%
    04:00 +19°C° 0 mm 1 mps 702 mmHg 98%
    05:00 +19°C° 0 mm 1 mps 703 mmHg 97%
    06:00 +19°C° 0 mm 1 mps 703 mmHg 97%
    07:00 +19°C° 0 mm 1 mps 703 mmHg 97%
    08:00 +21°C° 0 mm 1 mps 704 mmHg 85%
    09:00 +24°C° 0 mm 1 mps 705 mmHg 74%
    10:00 +27°C° 0 mm 1 mps 705 mmHg 63%
    11:00 +27°C° 0 mm 1 mps 705 mmHg 60%
    12:00 +28°C° 0 mm 1 mps 704 mmHg 57%
    13:00 +29°C° 0 mm 1 mps 704 mmHg 54%
    14:00 +28°C° 0 mm 1 mps 703 mmHg 57%
    15:00 +28°C° 0 mm 2 mps 703 mmHg 60%
    16:00 +27°C° 0 mm 2 mps 702 mmHg 63%
    17:00 +25°C° 0 mm 1 mps 702 mmHg 73%
    18:00 +23°C° 0 mm 1 mps 702 mmHg 83%
    19:00 +21°C° 0 mm 1 mps 703 mmHg 93%
    20:00 +21°C° 0 mm 1 mps 703 mmHg 95%
    21:00 +20°C° 0 mm 1 mps 703 mmHg 96%
    22:00 +20°C° 0 mm 1 mps 704 mmHg 98%
    23:00 +20°C° 0 mm 1 mps 703 mmHg 98%

    19 December, Thursday

    Time Temperature Precipitation Wind Pressure Humidity
    00:00 +20°C° 0 mm 1 mps 703 mmHg 98%
    01:00 +19°C° 0 mm 1 mps 703 mmHg 98%
    02:00 +19°C° 0 mm 1 mps 703 mmHg 98%
    03:00 +19°C° 0 mm 1 mps 703 mmHg 98%
    04:00 +19°C° 0 mm 1 mps 702 mmHg 98%
    05:00 +19°C° 0 mm 1 mps 703 mmHg 98%
    06:00 +19°C° 0 mm 1 mps 703 mmHg 98%
    07:00 +19°C° 0 mm 1 mps 703 mmHg 97%
    08:00 +21°C° 0 mm 1 mps 704 mmHg 85%
    09:00 +24°C° 0 mm 1 mps 705 mmHg 73%
    10:00 +27°C° 0 mm 1 mps 705 mmHg 60%
    11:00 +27°C° 0 mm 1 mps 705 mmHg 58%
    12:00 +28°C° 0 mm 1 mps 704 mmHg 55%
    13:00 +29°C° 0 mm 2 mps 704 mmHg 52%
    14:00 +28°C° 0.1 mm 1 mps 703 mmHg 56%
    15:00 +27°C° 0.1 mm 1 mps 703 mmHg 60%
    16:00 +27°C° 0.1 mm 1 mps 702 mmHg 64%
    17:00 +25°C° 0 mm 1 mps 702 mmHg 74%
    18:00 +22°C° 0 mm 1 mps 703 mmHg 84%
    19:00 +20°C° 0 mm 1 mps 703 mmHg 95%
    20:00 +20°C° 0 mm 1 mps 703 mmHg 96%
    21:00 +20°C° 0 mm 1 mps 703 mmHg 97%
    22:00 +19°C° 0 mm 1 mps 704 mmHg 98%
    23:00 +19°C° 0 mm 1 mps 703 mmHg 98%
    Show more